Location: Falniów
(50.3639°N, 19.9642°E)
Time: 22:55:31
(UTC+00:00)

Cosmos 540 Rocket - Pass Details

Date: 18 January 2026
Orbit: 736 x 747 km, 74.1° (Epoch: 16 February)

Event Time Altitude Azimuth Distance (km) Brightness Sun altitude
Exits shadow 04:40:35 14° 335° (NNW) 2,015 5.3 -17.2°
Maximum altitude 04:45:04 86° 249° (WSW) 746 3.3 -16.5°
Drops below altitude 10° 04:50:09 10° 160° (SSE) 2,240 6.4 -15.7°
Sets 04:52:29 0° 160° (SSE) 3,160 7.2 -15.4°
